CALSPHERE 1 (900 NORAD) Tracking and Keplerian Element Data

This shows tracking and keplerian element data for the satellite.

Feedback or suggestion? Click here.




ElementValue
Catalog900
NameCALSPHERE 1
Epoch Orbit289
Epoch Day34.91679894
Epoch Year2025
RAAN60.4111
Inclination90.2074
Eccentricity0.0025277
Argument of Perigee5.5249
Mean Anonmoly66.0494
Mean Motion13.75790885
Decay Rate1.057E-05
L11 00900U 64063C 25034.91679894 .00001057 00000+0 10817-2 0 9996
L22 00900 90.2074 60.4111 0025277 5.5249 66.0494 13.75790885 2895



Live tracking and technical data element details for CALSPHERE 1 (NORAD 900). CALSPHERE 1 can be tracked NOW for your location showing map with azimuth and elevation plus other details from your city location.







IsCatalogInMostPopularTable: catalog: 900, numindb: 318
Update: records affected: 1



GetName: 900 CALSPHERE 1

Hit Count: updated at: Thu, 15 May 2025 19:16:48 GMT